When you browse on this site, cookies collect data to enhance your experience and personalize the content and advertising you see.
Visit our Privacy Policy to learn more. By continuing to use the site, you agree to this use of cookies and data.
  • In Lithuania
  • List of Countries
  • For 7 days
  • Water Temperature
  • Satellite Maps
  • Weather Map
  • Weather Widgets
  • user-avatar
    Login

    Hourly Weather Mahdia

    Today, 20 April, Saturday

    Time Temperature Precipitation Wind Pressure Humidity
    00:00 +16°C° 0 mm 10 mps 766 mmHg 74%
    01:00 +16°C° 0 mm 9 mps 766 mmHg 74%
    02:00 +16°C° 0 mm 9 mps 765 mmHg 75%
    03:00 +16°C° 0 mm 9 mps 765 mmHg 76%
    04:00 +15°C° 0 mm 9 mps 765 mmHg 77%
    05:00 +16°C° 0 mm 9 mps 765 mmHg 76%
    06:00 +16°C° 0 mm 10 mps 764 mmHg 76%
    07:00 +16°C° 0 mm 9 mps 765 mmHg 76%
    08:00 +17°C° 0 mm 10 mps 764 mmHg 73%
    09:00 +17°C° 0 mm 10 mps 764 mmHg 70%
    10:00 +18°C° 0 mm 11 mps 764 mmHg 67%
    11:00 +18°C° 0 mm 11 mps 764 mmHg 65%
    12:00 +19°C° 0 mm 11 mps 764 mmHg 64%
    13:00 +19°C° 0 mm 10 mps 763 mmHg 64%
    14:00 +18°C° 0 mm 11 mps 763 mmHg 65%
    15:00 +18°C° 0 mm 12 mps 762 mmHg 66%
    16:00 +18°C° 0 mm 12 mps 762 mmHg 67%
    17:00 +17°C° 0 mm 12 mps 761 mmHg 70%
    18:00 +17°C° 0 mm 13 mps 761 mmHg 73%
    19:00 +15°C° 0 mm 13 mps 760 mmHg 75%
    20:00 +15°C° 0 mm 12 mps 760 mmHg 75%
    21:00 +15°C° 0 mm 12 mps 760 mmHg 75%
    22:00 +16°C° 0 mm 11 mps 760 mmHg 75%
    23:00 +16°C° 0 mm 11 mps 760 mmHg 75%

    Tomorrow, 21 April, Sunday

    Time Temperature Precipitation Wind Pressure Humidity
    00:00 +16°C° 0 mm 11 mps 760 mmHg 75%
    01:00 +16°C° 0 mm 10 mps 760 mmHg 75%
    02:00 +16°C° 0 mm 11 mps 759 mmHg 75%
    03:00 +15°C° 0 mm 12 mps 758 mmHg 75%
    04:00 +15°C° 0 mm 13 mps 758 mmHg 76%
    05:00 +15°C° 0 mm 13 mps 758 mmHg 75%
    06:00 +17°C° 0 mm 14 mps 757 mmHg 75%
    07:00 +17°C° 0 mm 14 mps 757 mmHg 74%
    08:00 +18°C° 0 mm 14 mps 757 mmHg 71%
    09:00 +18°C° 0 mm 15 mps 757 mmHg 67%
    10:00 +19°C° 0 mm 15 mps 756 mmHg 64%
    11:00 +20°C° 0 mm 14 mps 756 mmHg 62%
    12:00 +20°C° 0 mm 14 mps 755 mmHg 59%
    13:00 +22°C° 0 mm 13 mps 755 mmHg 57%
    14:00 +22°C° 0 mm 12 mps 754 mmHg 58%
    15:00 +22°C° 0 mm 12 mps 753 mmHg 59%
    16:00 +22°C° 0 mm 11 mps 753 mmHg 59%
    17:00 +21°C° 0 mm 11 mps 753 mmHg 63%
    18:00 +19°C° 0 mm 11 mps 753 mmHg 67%
    19:00 +18°C° 0 mm 11 mps 752 mmHg 72%
    20:00 +18°C° 0 mm 11 mps 753 mmHg 73%
    21:00 +18°C° 0 mm 11 mps 753 mmHg 74%
    22:00 +18°C° 0 mm 11 mps 753 mmHg 75%
    23:00 +18°C° 0 mm 10 mps 752 mmHg 71%

    Day after tomorrow, 22 April, Monday

    Time Temperature Precipitation Wind Pressure Humidity
    00:00 +19°C° 0 mm 10 mps 752 mmHg 68%
    01:00 +19°C° 0 mm 9 mps 751 mmHg 64%
    02:00 +21°C° 0 mm 9 mps 751 mmHg 59%
    03:00 +22°C° 0 mm 9 mps 750 mmHg 54%
    04:00 +23°C° 0 mm 9 mps 750 mmHg 50%
    05:00 +23°C° 0 mm 10 mps 750 mmHg 49%
    06:00 +23°C° 0 mm 10 mps 749 mmHg 48%
    07:00 +24°C° 0 mm 10 mps 749 mmHg 48%
    08:00 +27°C° 0 mm 10 mps 749 mmHg 38%
    09:00 +29°C° 0 mm 10 mps 749 mmHg 29%
    10:00 +32°C° 0 mm 10 mps 749 mmHg 20%
    11:00 +32°C° 0 mm 11 mps 749 mmHg 19%
    12:00 +33°C° 0 mm 11 mps 749 mmHg 19%
    13:00 +33°C° 0 mm 12 mps 749 mmHg 19%
    14:00 +32°C° 0 mm 12 mps 749 mmHg 19%
    15:00 +32°C° 0 mm 12 mps 749 mmHg 19%
    16:00 +31°C° 0 mm 11 mps 749 mmHg 19%
    17:00 +29°C° 0 mm 10 mps 750 mmHg 22%
    18:00 +28°C° 0 mm 9 mps 750 mmHg 25%
    19:00 +27°C° 0 mm 7 mps 751 mmHg 27%
    20:00 +27°C° 0 mm 7 mps 752 mmHg 29%
    21:00 +26°C° 0 mm 6 mps 753 mmHg 31%
    22:00 +24°C° 0 mm 6 mps 753 mmHg 33%
    23:00 +25°C° 0 mm 5 mps 753 mmHg 33%

    23 April, Tuesday

    Time Temperature Precipitation Wind Pressure Humidity
    00:00 +25°C° 0 mm 5 mps 753 mmHg 34%
    01:00 +23°C° 0 mm 4 mps 753 mmHg 35%
    02:00 +23°C° 0 mm 5 mps 753 mmHg 35%
    03:00 +23°C° 0 mm 5 mps 753 mmHg 36%
    04:00 +22°C° 0 mm 6 mps 753 mmHg 37%
    05:00 +22°C° 0 mm 6 mps 753 mmHg 41%
    06:00 +22°C° 0 mm 7 mps 753 mmHg 45%
    07:00 +22°C° 0 mm 7 mps 753 mmHg 49%
    08:00 +24°C° 0 mm 7 mps 754 mmHg 42%
    09:00 +27°C° 0 mm 6 mps 754 mmHg 35%
    10:00 +29°C° 0 mm 6 mps 755 mmHg 27%
    11:00 +30°C° 0 mm 6 mps 755 mmHg 25%
    12:00 +30°C° 0 mm 5 mps 755 mmHg 23%
    13:00 +32°C° 0 mm 5 mps 755 mmHg 21%
    14:00 +32°C° 0 mm 6 mps 755 mmHg 22%
    15:00 +30°C° 0 mm 6 mps 754 mmHg 23%
    16:00 +30°C° 0 mm 7 mps 754 mmHg 24%
    17:00 +28°C° 0 mm 7 mps 755 mmHg 29%
    18:00 +26°C° 0 mm 7 mps 755 mmHg 34%
    19:00 +24°C° 0 mm 7 mps 755 mmHg 38%
    20:00 +23°C° 0 mm 7 mps 756 mmHg 42%
    21:00 +22°C° 0 mm 6 mps 756 mmHg 46%
    22:00 +22°C° 0 mm 6 mps 757 mmHg 49%
    23:00 +21°C° 0 mm 5 mps 757 mmHg 53%

    24 April, Wednesday

    Time Temperature Precipitation Wind Pressure Humidity
    00:00 +20°C° 0 mm 3 mps 757 mmHg 57%
    01:00 +20°C° 0 mm 2 mps 757 mmHg 61%
    02:00 +20°C° 0 mm 2 mps 757 mmHg 61%
    03:00 +19°C° 0 mm 3 mps 757 mmHg 62%
    04:00 +19°C° 0 mm 3 mps 757 mmHg 62%
    05:00 +19°C° 0 mm 4 mps 757 mmHg 64%
    06:00 +19°C° 0 mm 4 mps 758 mmHg 65%
    07:00 +19°C° 0 mm 5 mps 758 mmHg 66%
    08:00 +20°C° 0 mm 5 mps 758 mmHg 64%
    09:00 +21°C° 0 mm 5 mps 758 mmHg 62%
    10:00 +22°C° 0 mm 5 mps 758 mmHg 59%
    11:00 +23°C° 0 mm 5 mps 758 mmHg 58%
    12:00 +23°C° 0 mm 5 mps 758 mmHg 56%
    13:00 +25°C° 0 mm 5 mps 758 mmHg 54%
    14:00 +23°C° 0.3 mm 5 mps 757 mmHg 56%
    15:00 +23°C° 0.3 mm 5 mps 757 mmHg 58%
    16:00 +23°C° 0.3 mm 5 mps 757 mmHg 60%
    17:00 +22°C° 0.1 mm 5 mps 757 mmHg 65%
    18:00 +21°C° 0.1 mm 4 mps 758 mmHg 70%
    19:00 +20°C° 0.1 mm 4 mps 758 mmHg 75%
    20:00 +19°C° 0 mm 5 mps 758 mmHg 77%
    21:00 +19°C° 0 mm 6 mps 759 mmHg 80%
    22:00 +18°C° 0 mm 7 mps 760 mmHg 83%
    23:00 +17°C° 0.1 mm 7 mps 760 mmHg 83%

    25 April, Thursday

    Time Temperature Precipitation Wind Pressure Humidity
    00:00 +17°C° 0.1 mm 8 mps 759 mmHg 84%
    01:00 +17°C° 0.1 mm 8 mps 759 mmHg 84%
    02:00 +17°C° 0 mm 8 mps 759 mmHg 84%
    03:00 +17°C° 0 mm 8 mps 759 mmHg 83%
    04:00 +17°C° 0 mm 9 mps 759 mmHg 82%
    05:00 +17°C° 0 mm 9 mps 759 mmHg 81%
    06:00 +17°C° 0 mm 9 mps 759 mmHg 80%
    07:00 +17°C° 0 mm 8 mps 759 mmHg 79%
    08:00 +18°C° 0 mm 9 mps 760 mmHg 74%
    09:00 +19°C° 0 mm 9 mps 760 mmHg 70%
    10:00 +21°C° 0 mm 9 mps 760 mmHg 65%
    11:00 +22°C° 0 mm 9 mps 761 mmHg 63%
    12:00 +22°C° 0 mm 9 mps 761 mmHg 62%
    13:00 +22°C° 0 mm 9 mps 761 mmHg 61%
    14:00 +22°C° 0 mm 9 mps 761 mmHg 60%
    15:00 +23°C° 0 mm 9 mps 761 mmHg 59%
    16:00 +23°C° 0 mm 8 mps 761 mmHg 58%
    17:00 +22°C° 0 mm 8 mps 761 mmHg 61%
    18:00 +21°C° 0 mm 8 mps 761 mmHg 64%
    19:00 +20°C° 0 mm 7 mps 762 mmHg 68%
    20:00 +20°C° 0 mm 7 mps 762 mmHg 70%
    21:00 +18°C° 0 mm 7 mps 763 mmHg 73%
    22:00 +18°C° 0 mm 7 mps 764 mmHg 75%
    23:00 +17°C° 0 mm 8 mps 764 mmHg 76%
    Show more